User: anonymous   Login
Location: Unspecified
(0.0000°N, 0.0000°E)
Time: 11:22:38
(UTC+00:00)
Language:

AIST 2D - Orbit

View from above orbital plane
View from above orbital plane
View from above satellite
View from above satellite

Ground track
Ground track

The orbit data is extracted from the following two-line orbital elements,

1 41465U 16026B   19342.06207544  .00001013  00000-0  32844-4 0  9992
2 41465  97.1707 232.6449 0009857 215.4549 259.0476 15.34200853201920
Epoch (UTC): 08 December 2019 01:29:23
Eccentricity: 0.0009857
inclination: 97.1707°
perigee height: 456 km
apogee height: 470 km
right ascension of ascending node: 232.6449°
argument of perigee: 215.4549°
revolutions per day: 15.34200853
mean anomaly at epoch: 259.0476°
orbit number at epoch: 20192

The dashed part of the orbit path shows where the satellite is in the earth's shadow,  

DLR